Weather History for Lanai City, HI

Change the Weather History Date:

Tuesday, May 14, 2013

  Actual Average Record
Temperature  
Mean Temperature 73 °F -  
Max Temperature 81 °F 80 °F 84 °F (1993)
Min Temperature 65 °F 62 °F 58 °F (1975)
Cooling Degree Days 8    
Growing Degree Days 23 (Base 50)    
Moisture  
Dew Point 67 °F    
Average Humidity 78    
Maximum Humidity 97    
Minimum Humidity 61    
Precipitation  
Precipitation 0.00 in - - ()
Sea Level Pressure  
Sea Level Pressure 30.09 in    
Wind  
Wind Speed 9 mph (NNE)    
Max Wind Speed 20 mph    
Max Gust Speed 28 mph    
Visibility 10 miles    
Events      
Averages and records for this station are not official NWS values.
T = Trace of Precipitation, MM = Missing Value Source: NWS Daily Summary

Daily Weather History Graph

Daily Weather History Graph

Search for Another Location

Airport:

Trip Planner

Search our weather history database for the weather conditions in past years. The results will help you decide how hot, cold, wet, or windy it might be!

Date:

Astronomy

May. 14, 2013 Rise Set
Actual Time 5:50 AM HST 6:57 PM HST
Civil Twilight 5:26 AM HST 7:21 PM HST
Nautical Twilight 4:58 AM HST 7:49 PM HST
Astronomical Twilight 4:29 AM HST 8:18 PM HST
Moon 9:38 AM HST (5/14) 10:57 PM HST (5/14)
Length of Visible Light 13h 54m
Length of Day
13h 07m
Waxing Crescent, 20% of the Moon is Illuminated
May 14
Waxing Crescent
May 17
First Quarter
May 24
Full
May 31
Last Quarter
Jun 8
New

Hourly Weather History & Observations

Time (HST) Temp. Heat Index Dew Point Humidity Pressure Visibility Wind Dir Wind Speed Gust Speed Precip Events Conditions
12:20 AM 71.6 °F - 69.8 °F 94% 30.12 in 10.0 mi North 9.2 mph - N/A   Mostly Cloudy
12:56 AM 70.0 °F - 68.0 °F 93% 30.06 in 10.0 mi NNE 8.1 mph - N/A   Clear
1:56 AM 68.9 °F - 68.0 °F 97% 30.04 in 10.0 mi NE 9.2 mph - N/A   Clear
2:56 AM 68.9 °F - 68.0 °F 97% 30.04 in 10.0 mi NE 3.5 mph - N/A   Clear
3:56 AM 68.9 °F - 66.9 °F 93% 30.04 in 10.0 mi NNE 9.2 mph - N/A   Partly Cloudy
4:08 AM 69.8 °F - 68.0 °F 94% 30.09 in 10.0 mi NNE 9.2 mph - N/A   Mostly Cloudy
4:37 AM 69.8 °F - 66.2 °F 88% 30.09 in 10.0 mi Calm Calm - N/A   Scattered Clouds
4:56 AM 69.8 °F - 66.2 °F 88% 30.10 in 10.0 mi ENE 4.6 mph - N/A   Mostly Cloudy
5:56 AM 65.8 °F - 64.9 °F 97% 30.06 in 10.0 mi NE 4.6 mph - N/A   Clear
6:56 AM 70.9 °F - 68.9 °F 93% 30.07 in 10.0 mi NNE 9.2 mph - N/A   Clear
7:56 AM 75.9 °F - 66.9 °F 74% 30.06 in 10.0 mi ENE 5.8 mph - N/A   Clear
8:56 AM 77.9 °F - 68.0 °F 71% 30.07 in 10.0 mi South 10.4 mph - N/A   Clear
9:56 AM 79.0 °F - 66.9 °F 66% 30.08 in 10.0 mi SSW 5.8 mph - N/A   Partly Cloudy
10:11 AM 77.0 °F - 66.2 °F 69% 30.15 in 10.0 mi WNW 6.9 mph - N/A   Mostly Cloudy
10:56 AM 77.0 °F - 66.2 °F 69% 30.15 in 10.0 mi Variable 4.6 mph - N/A   Mostly Cloudy
11:15 AM 80.6 °F 82.7 °F 66.2 °F 61% 30.14 in 10.0 mi NNW 6.9 mph - N/A   Scattered Clouds
11:56 AM 81.0 °F 83.8 °F 68.0 °F 65% 30.06 in 10.0 mi West 8.1 mph - N/A   Partly Cloudy
12:23 PM 78.8 °F - 66.2 °F 65% 30.13 in 10.0 mi WNW 8.1 mph - N/A   Mostly Cloudy
12:56 PM 77.9 °F - 66.9 °F 69% 30.06 in 10.0 mi West 10.4 mph - N/A   Mostly Cloudy
1:23 PM 80.6 °F 83.2 °F 68.0 °F 65% 30.12 in 10.0 mi West 10.4 mph - N/A   Partly Cloudy
1:56 PM 78.8 °F - 66.2 °F 65% 30.12 in 10.0 mi WNW 6.9 mph - N/A   Mostly Cloudy
2:56 PM 77.0 °F - 66.9 °F 71% 30.06 in 10.0 mi Variable 3.5 mph - N/A   Overcast
3:30 PM 78.8 °F - 68.0 °F 69% 30.10 in 10.0 mi NNE 17.3 mph 21.9 mph N/A   Mostly Cloudy
3:42 PM 80.6 °F 83.2 °F 68.0 °F 65% 30.10 in 10.0 mi NE 19.6 mph 23.0 mph N/A   Scattered Clouds
3:56 PM 81.0 °F 83.8 °F 68.0 °F 65% 30.04 in 10.0 mi NE 19.6 mph 24.2 mph N/A   Scattered Clouds
4:28 PM 78.8 °F - 66.2 °F 65% 30.11 in 10.0 mi ENE 12.7 mph 27.6 mph N/A   Mostly Cloudy
4:56 PM 77.0 °F - 68.0 °F 74% 30.11 in 10.0 mi NE 17.3 mph - N/A   Mostly Cloudy
5:33 PM 77.0 °F - 66.2 °F 69% 30.11 in 10.0 mi NNE 19.6 mph - N/A   Scattered Clouds
5:56 PM 74.8 °F - 66.9 °F 76% 30.07 in 10.0 mi NNE 13.8 mph - N/A   Partly Cloudy
6:56 PM 72.9 °F - 65.8 °F 79% 30.08 in 10.0 mi NNE 16.1 mph - N/A   Mostly Cloudy
7:56 PM 70.9 °F - 66.9 °F 87% 30.08 in 10.0 mi NE 16.1 mph - N/A   Clear
8:56 PM 70.9 °F - 65.8 °F 84% 30.10 in 10.0 mi NNE 11.5 mph - N/A   Clear
9:56 PM 68.9 °F - 65.8 °F 90% 30.11 in 10.0 mi NE 9.2 mph - N/A   Clear
10:56 PM 68.9 °F - 65.8 °F 90% 30.12 in 10.0 mi East 4.6 mph - N/A   Clear
11:56 PM 68.9 °F - 65.8 °F 90% 30.10 in 10.0 mi NNE 6.9 mph - N/A   Partly Cloudy